Skip Page Navigation
NASA JPL Caltech
NASA Logo - Jet Propulsion Laboratory + View the NASA Portal
+ Center for Near-Earth Object Studies
JPL Home Earth Solar System Stars & Galaxies Technology
JPL Solar System Dynamics
BODIES ORBITS EPHEMERIDES TOOLS PHYSICAL DATA DISCOVERY FAQ SITE MAP
IMPORTANT: The SSD Announcement email list is now available. Major changes are coming in the near future, including possible hostname and/or URL changes. To be notified of such changes, subscribe to this email list.

Please visit this page for more details.


JPL Small-Body Database Browser
Search: [ help ]  
277314 (2005 SV207)
Classification: Main-belt Asteroid          SPK-ID: 2277314
Ephemeris | Orbit Diagram | Orbital Elements | Mission Design | Physical Parameters | Discovery Circumstances | Close-Approach Data ]

[ show orbit diagram ]
Orbital Elements at Epoch 2458600.5 (2019-Apr-27.0) TDB
Reference: JPL 13 (heliocentric ecliptic J2000)
 Element Value Uncertainty (1-sigma)   Units 
e .1259146579438605 4.7771e-08  
a 2.34844385434148 1.1605e-08 au
q 2.052740349721712 1.1349e-07 au
i 7.62200154180941 5.2908e-06 deg
node 69.94773473749618 3.5618e-05 deg
peri 306.4276658431211 4.0918e-05 deg
M 276.9605225873189 1.9908e-05 deg
tp 2458903.715086629435
(2020-Feb-24.21508663)
7.3578e-05 TDB
period 1314.524544080609
3.60
9.7434e-06
2.668e-08
d
yr
n .2738632775029602 2.0299e-09 deg/d
Q 2.644147358961249 1.3066e-08 au
  Orbit Determination Parameters
   # obs. used (total)      264  
   data-arc span      7579 days (20.75 yr)  
   first obs. used      1998-11-23  
   last obs. used      2019-08-24  
   planetary ephem.      DE431  
   SB-pert. ephem.      SB431-N16  
   condition code      0  
   norm. resid. RMS      .55424  
   source      ORB  
   producer      Otto Matic  
   solution date      2019-Sep-24 04:46:48  

Additional Information
 Earth MOID = 1.06494 au 
 Jupiter MOID = 2.82051 au 
 T_jup = 3.537 
[ show covariance matrix ]

Ephemeris | Orbit Diagram | Orbital Elements | Mission Design | Physical Parameters | Discovery Circumstances | Close-Approach Data ]

Physical Parameter Table
Parameter Symbol Value Units Sigma Reference Notes
absolute magnitude H 16.5   n/a MPO440344  

277314 (2005 SV207)          Discovered 2005-Sep-30 by LINEAR at Socorro
Reference: 20110517/Numbers.arcLast Updated: 2011-05-20

[ show close-approach data ]
Ephemeris | Orbit Diagram | Orbital Elements | Mission Design | Physical Parameters | Discovery Circumstances | Close-Approach Data ]
ABOUT SSD CREDITS/AWARDS PRIVACY/COPYRIGHT GLOSSARY LINKS
FirstGov 2019-Dec-07 20:06 UT
(server date/time)  
NASA Home Page
Site Manager:   Ryan S. Park
Webmaster  Alan B. Chamberlin